Location: Boiro
(42.6475°N, 8.8834°W)
Time: 03:48:48
(UTC+01:00)

Vanguard 1 Rocket - Pass Details

Date: 10 December 2021
Orbit: 651 x 4224 km, 34.3° (Epoch: 21 January)

Event Time Altitude Azimuth Distance (km) Brightness Sun altitude
Rises 02:23:49 0° 230° (SW) 3,631 - -67.1°
Reaches altitude 10° 02:26:03 10° 222° (SW) 2,938 - -66.9°
Maximum altitude 02:32:49 41° 154° (SSE) 2,153 - -66.1°
Exits shadow 02:41:42 18° 96° (E) 4,293 10.8 -65.1°
Drops below altitude 10° 02:45:09 10° 90° (E) 5,311 11.4 -64.6°
Sets 02:50:49 0° 85° (E) 6,928 12.2 -63.9°
